Malmstrom AFB, MT

4:05 PM MDT on May 24, 2018 (GMT -0600)
Malmstrom AFB

Weather History for KGFA - January, 2014

Change the Weather History Date:

Friday, January 31, 2014

  Actual Average (KGTF) Record (KGTF)
Temperature  
Mean Temperature 7 °F -  
Max Temperature 19 °F 32 °F 67 °F (1992)
Min Temperature -5 °F 12 °F -38 °F (1893)
Degree Days  
Heating Degree Days 58    
Moisture  
Dew Point 4 °F    
Average Humidity 76    
Maximum Humidity 86    
Minimum Humidity 46    
Precipitation  
Precipitation 0.00 in - - ()
Snow  
Snow 0.00 in - - ()
Snow Depth 4.00 in    
Sea Level Pressure  
Sea Level Pressure 30.07 in    
Wind  
Wind Speed 5 mph (West)    
Max Wind Speed 13 mph    
Max Gust Speed -    
Visibility 7 miles    
Events Snow    
Averages and records for this station are not official NWS values.
T = Trace of Precipitation, MM = Missing Value Source: NWS Daily Summary

Daily Weather History Graph

Daily Weather History Graph

Search for Another Location

Airport or City:

Astronomy

Jan. 31, 2014 Rise Set
Actual Time 7:52 AM MST 5:24 PM MST
Civil Twilight 7:19 AM MST 5:57 PM MST
Nautical Twilight 6:42 AM MST 6:34 PM MST
Astronomical Twilight 6:06 AM MST 7:10 PM MST
Moon 7:56 AM MST (1/31) 7:02 PM MST (1/31)
Length of Visible Light 10h 38m
Length of Day
9h 32m
New Moon, 1% of the Moon is Illuminated
Jan 31
New Moon
Feb 6
First Quarter
Feb 14
Full
Feb 22
Last Quarter
Mar 1
New

Hourly Weather History & Observations

Time (MST) Temp. Windchill Dew Point Humidity Pressure Visibility Wind Dir Wind Speed Gust Speed Precip Events Conditions
12:56 AM -5.1 °F - -9.9 °F 80% 30.16 in 10.0 mi Calm Calm - N/A   Clear
1:56 AM -4.0 °F -12.4 °F -9.0 °F 79% 30.13 in 10.0 mi SSE 3.5 mph - N/A   Scattered Clouds
2:56 AM -4.0 °F -14.6 °F -9.0 °F 79% 30.11 in 10.0 mi Variable 4.6 mph - N/A   Clear
3:56 AM -0.9 °F -8.9 °F -5.1 °F 83% 30.06 in 10.0 mi WSW 3.5 mph - N/A   Partly Cloudy
4:51 AM -5.8 °F -21.2 °F -9.4 °F 84% 29.69 in 10.0 mi SSW 8.1 mph - N/A   Partly Cloudy
4:56 AM -5.1 °F -20.4 °F -9.0 °F 83% 30.04 in 10.0 mi SSW 8.1 mph - N/A   Scattered Clouds
5:56 AM -4.0 °F -16.3 °F -9.0 °F 79% 30.02 in 10.0 mi WSW 5.8 mph - N/A   Clear
6:56 AM 7.0 °F -9.1 °F 1.9 °F 80% 30.03 in 10.0 mi SW 12.7 mph - N/A   Overcast
7:56 AM 3.0 °F -4.4 °F -0.9 °F 84% 30.12 in 10.0 mi Variable 3.5 mph - N/A   Mostly Cloudy
8:56 AM 12.0 °F -0.4 °F 6.1 °F 77% 30.06 in 10.0 mi SW 9.2 mph - N/A   Overcast
9:56 AM 12.9 °F 1.6 °F 6.1 °F 74% 30.06 in 10.0 mi SW 8.1 mph - N/A   Overcast
10:56 AM 12.9 °F 3.8 °F 8.1 °F 81% 30.07 in 10.0 mi SW 5.8 mph - N/A   Overcast
11:56 AM 19.9 °F 11.1 °F 3.9 °F 50% 30.10 in 10.0 mi NNW 6.9 mph - N/A   Overcast
12:56 PM 19.0 °F 9.0 °F 1.0 °F 46% 30.11 in 10.0 mi NNW 8.1 mph - N/A   Overcast
1:56 PM 18.0 °F 6.9 °F 3.0 °F 52% 30.11 in 10.0 mi NNW 9.2 mph - N/A   Overcast
2:56 PM 17.1 °F 8.7 °F 5.0 °F 59% 30.16 in 10.0 mi NW 5.8 mph - N/A   Overcast
3:56 PM 17.1 °F 10.0 °F 3.9 °F 56% 30.16 in 10.0 mi NW 4.6 mph - N/A   Overcast
4:56 PM 16.0 °F 7.4 °F 7.0 °F 68% 30.19 in 10.0 mi NW 5.8 mph - N/A   Overcast
5:13 PM 15.8 °F 7.2 °F 8.6 °F 73% 29.87 in 2.5 mi WNW 5.8 mph - 0.00 in Snow Light Snow
5:22 PM 15.8 °F 8.6 °F 8.6 °F 73% 29.92 in 1.2 mi West 4.6 mph - 0.00 in Snow Light Snow
5:44 PM 15.8 °F 8.6 °F 8.6 °F 73% 29.89 in 3.0 mi West 4.6 mph - 0.00 in Snow Light Snow
5:56 PM 16.0 °F 4.4 °F 10.0 °F 77% 30.22 in 2.5 mi WNW 9.2 mph - 0.00 in Snow Light Snow
6:05 PM 15.8 °F 5.1 °F 10.4 °F 79% 29.88 in 1.2 mi WNW 8.1 mph - 0.00 in Snow Light Snow
6:56 PM 15.1 °F 4.2 °F 10.9 °F 84% 30.22 in 1.8 mi West 8.1 mph - 0.00 in Snow Light Snow
7:25 PM 14.0 °F 1.2 °F 10.4 °F 86% 29.96 in 3.0 mi NW 10.4 mph - 0.00 in Snow Light Snow
7:39 PM 14.0 °F 1.2 °F 8.6 °F 79% 29.97 in 4.0 mi WNW 10.4 mph - 0.00 in Snow Light Snow
7:56 PM 14.0 °F 2.9 °F 9.0 °F 80% 30.25 in 7.0 mi NW 8.1 mph - 0.00 in   Overcast
8:56 PM 14.0 °F 5.1 °F 8.1 °F 77% 30.24 in 10.0 mi West 5.8 mph - N/A   Overcast
9:56 PM 14.0 °F 8.2 °F 8.1 °F 77% 30.25 in 8.0 mi WSW 3.5 mph - N/A   Overcast
10:56 PM 12.9 °F 3.8 °F 8.1 °F 81% 30.30 in 3.0 mi SSW 5.8 mph - 0.00 in Snow Light Snow
11:05 PM 12.2 °F 2.9 °F 8.6 °F 85% 29.98 in 2.0 mi SW 5.8 mph - 0.00 in Snow Light Snow
11:13 PM 12.2 °F 4.3 °F 8.6 °F 85% 29.97 in 1.8 mi WSW 4.6 mph - 0.00 in Snow Light Snow
11:20 PM 14.0 °F 3.9 °F 10.4 °F 86% 29.97 in 3.0 mi WSW 6.9 mph - 0.00 in Snow Light Snow
11:32 PM 14.0 °F 6.5 °F 10.4 °F 86% 29.97 in 1.8 mi WSW 4.6 mph - 0.00 in Snow Light Snow
11:45 PM 14.0 °F 5.1 °F 10.4 °F 86% 30.04 in 3.0 mi West 5.8 mph - 0.00 in Snow Light Snow
11:56 PM 14.0 °F 5.1 °F 8.1 °F 77% 30.31 in 10.0 mi WNW 5.8 mph - 0.00 in   Overcast